Wind_Speed
6 7 8 9 10 13 17 19 18 17 15 14 14 13 13 13 11 8 6 5 4 2 2 3 5 6 7 8 7 6 6 5 4 4 4 4 4 4 3 3 2 1 1 0 0 0 1 1 2
5 6 7 9 9 13 16 19 19 18 17 16 15 14 13 12 10 8 7 5 4 3 2 3 5 7 8 8 9 8 7 6 5 5 5 5 5 5 4 3 3 2 1 1 0 0 1 1 1
4 5 7 7 8 11 14 18 20 20 19 18 16 15 14 11 10 9 7 6 4 3 3 4 5 7 9 10 10 10 9 7 6 5 6 5 5 5 4 4 3 3 2 1 1 1 1 1 1
3 3 5 5 8 11 13 16 19 21 19 18 18 17 16 13 11 10 8 7 5 4 3 4 5 7 9 10 11 11 10 8 7 6 6 5 5 5 4 4 3 3 2 2 1 1 1 1 1
3 4 4 4 6 8 10 15 18 21 21 20 19 18 18 15 13 11 9 7 6 5 4 4 5 7 9 11 12 11 11 9 9 8 7 6 5 5 5 4 4 3 2 2 2 1 1 1 1
3 3 2 3 5 7 9 13 16 20 21 20 19 18 18 16 15 13 10 8 7 6 5 5 5 7 9 11 12 12 11 10 10 9 8 7 6 5 5 4 4 3 3 3 2 1 1 1 1
2 2 1 3 5 7 9 12 16 20 21 20 18 18 18 17 15 14 12 9 8 7 7 6 6 7 9 11 13 13 13 12 11 10 9 8 7 6 5 5 4 4 3 3 2 2 1 1 1
3 3 2 2 4 6 8 11 16 19 20 20 18 18 19 17 16 15 14 12 10 8 7 7 7 8 10 12 13 14 14 13 13 12 10 9 8 7 6 5 5 4 3 3 2 2 2 1 2
4 4 2 1 2 5 9 12 15 18 19 20 19 19 20 19 17 16 15 14 11 10 9 8 8 9 11 13 14 14 14 14 13 12 11 10 8 7 6 5 5 4 4 3 3 2 2 1 1
7 7 4 3 5 7 10 12 14 17 19 20 19 20 20 19 17 16 16 15 12 10 10 9 9 10 11 13 15 15 15 14 13 13 12 10 9 8 7 6 6 5 5 4 4 3 2 1 2
8 9 8 7 7 9 10 12 14 16 18 18 19 20 19 19 19 18 17 16 13 11 10 10 10 11 12 13 15 16 16 15 15 14 13 11 10 9 8 7 6 6 5 5 4 3 2 2 2
10 11 11 9 9 10 11 12 14 16 18 19 20 20 20 20 21 20 18 15 12 11 10 11 10 11 13 14 15 15 16 16 16 15 14 12 11 10 8 8 7 6 6 5 4 4 3 2 2
11 12 11 10 9 9 10 11 14 16 17 19 20 20 20 21 21 20 17 14 11 10 11 10 11 12 12 13 15 15 16 17 17 16 14 14 12 10 9 9 8 7 6 6 5 4 3 2 2
11 11 10 10 9 8 9 10 12 14 17 19 19 19 20 20 20 20 17 15 12 10 10 10 11 10 12 13 16 16 16 17 17 16 16 14 12 10 10 9 8 7 6 5 5 4 4 3 2
11 10 9 8 7 8 9 10 12 14 17 19 20 21 19 20 20 19 17 14 11 10 9 9 9 10 11 12 15 15 16 18 18 18 17 15 13 11 10 9 8 7 7 6 5 5 4 4 3
11 9 9 8 8 8 11 10 12 15 17 20 21 21 19 20 21 19 15 14 12 10 9 8 8 9 10 11 14 15 15 17 18 18 17 16 14 12 10 9 8 7 7 7 6 5 5 4 4
11 10 10 9 9 9 11 12 14 16 18 20 21 20 18 19 20 17 15 15 13 11 9 8 8 8 9 10 12 14 14 15 17 18 18 17 14 13 11 10 8 8 8 8 7 6 5 4 4
13 13 13 11 11 10 11 14 16 18 20 21 20 20 19 18 17 16 15 15 12 10 8 7 7 8 8 9 11 12 14 15 17 18 17 16 15 14 13 11 9 9 9 8 7 6 6 5 5
15 15 13 11 11 12 14 16 18 20 21 21 20 20 21 18 17 15 14 13 11 10 8 6 6 6 7 8 11 13 15 15 16 18 17 16 15 14 13 12 11 10 10 9 8 7 6 6 5
15 15 13 12 13 15 17 17 18 20 21 20 20 18 19 18 17 14 13 12 10 9 9 6 6 6 7 9 11 13 15 15 16 18 18 17 15 15 14 13 12 11 11 10 9 8 7 7 6
16 15 14 13 14 17 19 20 20 21 20 17 16 16 17 17 14 13 11 10 9 8 7 4 6 7 8 9 11 13 15 17 17 18 18 17 16 15 15 14 13 12 12 11 10 9 8 7 7
16 14 15 14 15 17 19 21 20 21 19 17 15 15 17 16 14 12 10 8 8 7 6 4 6 7 7 9 11 14 16 17 17 18 18 18 17 17 16 15 14 13 13 12 11 10 9 9 8
15 14 15 16 18 19 19 20 18 20 19 16 15 14 15 14 12 11 9 8 7 7 6 4 5 7 7 9 11 15 18 18 18 18 18 18 18 17 17 16 15 14 14 13 12 11 11 10 9
15 16 16 17 19 19 16 18 18 19 17 15 14 13 12 11 11 10 9 8 7 7 5 4 5 6 7 9 11 15 17 18 18 17 17 18 18 18 18 17 16 15 14 14 13 12 12 11 10
16 17 18 18 17 15 15 17 17 18 19 16 13 12 10 9 9 9 9 8 7 7 5 4 4 5 7 10 11 14 16 18 18 18 18 18 18 19 18 18 17 16 15 14 14 13 13 13 12
13 16 18 19 17 14 14 16 17 18 17 13 11 9 8 8 8 8 8 7 7 7 5 3 3 5 7 10 11 14 16 18 18 19 19 19 19 19 19 18 18 17 16 16 15 14 14 14 14
13 14 16 18 19 18 17 16 15 15 14 13 10 7 7 7 6 7 7 7 7 6 5 3 2 3 5 9 11 14 16 17 18 19 19 19 19 19 19 19 18 17 17 17 16 16 15 15 15
14 12 16 18 19 20 19 16 16 16 14 13 11 9 7 6 6 6 6 6 6 6 5 4 3 3 5 7 10 13 15 16 18 19 19 19 19 19 19 18 17 17 16 17 16 17 17 16 16
14 14 16 16 18 20 20 18 16 14 13 13 11 9 6 5 6 6 5 5 5 5 5 4 4 3 4 6 8 12 15 16 18 19 19 18 18 18 19 18 17 17 17 16 17 17 18 18 18
18 17 17 18 17 18 20 19 18 16 14 12 10 8 6 5 5 5 5 5 6 5 5 4 4 4 5 6 7 10 13 16 17 18 18 18 18 18 19 18 18 18 18 18 18 18 18 19 20
Wind_Direction
77 80 79 78 62 43 37 31 18 10 10 12 14 13 10 10 10 8 355 354 344 322 251 226 222 221 218 214 214 217 223 234 251 272 289 299 302 302 304 301 307 317 325 327 58 119 141 125 117
75 74 77 82 66 43 34 22 10 5 3 7 11 11 12 12 10 2 355 348 334 320 278 239 226 223 221 219 218 218 224 237 246 262 279 293 299 299 298 296 296 295 298 298 264 175 157 130 123
67 72 80 86 68 48 32 17 4 2 359 2 5 6 8 11 10 2 356 352 338 315 278 253 235 225 223 222 221 219 223 232 241 254 270 284 294 296 296 294 290 286 286 281 239 201 177 149 129
48 62 75 74 57 48 28 15 359 356 355 0 0 359 1 4 1 357 354 354 347 328 287 261 241 230 224 221 221 221 223 224 234 248 262 274 287 290 292 292 289 284 281 269 253 213 166 155 139
26 48 72 73 54 51 24 5 353 350 351 356 357 358 0 359 356 354 348 345 335 327 303 269 244 231 225 222 218 219 220 223 233 243 256 268 277 282 288 289 289 286 282 272 263 240 180 153 153
24 45 54 51 54 48 20 357 346 342 347 353 355 355 357 357 356 351 344 340 335 319 303 281 256 236 225 222 219 217 220 225 233 242 249 258 265 274 281 280 284 284 280 272 258 241 204 183 181
341 316 352 54 49 36 15 349 338 334 339 346 350 352 352 351 352 349 338 337 329 317 300 289 265 243 228 223 219 219 223 226 232 239 243 249 258 265 269 270 272 276 276 268 259 247 223 210 207
298 278 290 47 47 16 358 334 326 328 333 340 346 350 350 349 349 347 339 333 323 308 295 284 267 248 230 223 220 219 223 228 233 237 240 245 252 257 259 258 261 266 265 254 254 247 241 229 220
280 264 271 319 0 344 333 320 319 321 328 335 340 344 343 342 342 343 337 328 314 302 290 278 264 251 235 226 221 221 223 228 233 235 238 241 246 250 251 251 255 259 255 244 246 244 265 227 204
270 258 260 277 304 317 312 308 310 317 325 329 333 335 336 336 337 336 332 325 312 299 284 274 259 250 239 228 222 222 223 226 229 231 232 234 241 247 245 245 249 251 246 242 244 247 252 218 201
268 257 260 266 287 295 297 299 302 308 318 326 328 332 334 335 333 331 326 321 309 299 287 269 260 247 241 231 221 221 224 227 226 225 225 228 236 242 242 242 245 243 240 239 243 242 240 220 212
269 259 259 261 266 273 284 292 298 305 316 325 328 333 335 334 331 329 326 320 310 301 289 271 258 250 243 233 224 222 222 225 223 222 222 224 231 237 236 238 238 237 236 233 230 226 228 216 211
281 268 261 259 259 268 275 287 297 308 321 326 328 332 333 334 332 329 329 326 323 304 291 275 261 251 242 233 224 221 221 222 222 219 220 224 228 226 229 233 230 231 230 227 224 219 218 205 198
283 280 273 268 263 265 270 283 298 314 322 326 327 328 332 336 334 333 332 329 322 314 294 275 261 250 244 236 224 218 219 219 220 218 219 221 221 220 227 230 225 221 220 221 217 208 209 206 194
281 280 274 269 261 265 274 290 303 314 321 324 323 325 329 334 334 332 331 327 322 315 300 278 260 255 248 236 224 219 219 218 220 217 216 217 215 217 222 222 219 216 215 215 211 206 212 213 202
279 272 262 263 256 269 277 293 301 308 312 316 320 323 329 336 336 333 331 329 323 318 303 283 269 259 246 235 226 222 217 218 216 213 212 210 207 210 210 208 207 208 209 205 198 195 202 200 192
268 262 262 263 271 277 283 296 297 302 306 314 317 321 330 335 336 333 331 331 322 313 301 280 271 264 244 234 224 221 217 213 209 208 207 203 202 204 201 201 203 202 200 196 191 191 192 190 183
263 260 264 272 280 289 288 293 295 300 305 311 315 318 326 331 331 331 330 330 323 311 302 285 265 255 246 231 215 214 211 206 203 200 201 201 200 198 198 201 202 197 195 194 192 192 193 191 186
262 263 265 266 273 281 287 291 295 299 301 305 311 317 326 328 326 325 329 331 330 322 308 292 267 260 239 220 214 213 207 203 201 199 197 196 196 198 199 203 200 195 196 196 195 195 195 198 197
264 265 266 265 264 270 278 282 286 290 297 302 307 315 324 328 324 326 332 333 333 326 316 287 251 251 239 228 219 212 206 204 198 195 196 198 199 200 201 201 200 199 198 198 200 199 200 203 205
263 263 266 267 265 264 271 276 281 286 291 296 307 317 327 329 331 331 330 334 335 325 315 289 247 247 240 227 218 209 207 201 197 195 195 200 202 202 200 200 203 203 202 204 204 204 206 208 208
262 264 264 263 266 269 272 277 278 281 284 288 300 313 325 327 331 336 332 334 333 325 309 272 250 243 236 225 215 205 200 199 198 197 199 203 206 205 202 203 206 207 206 207 208 209 209 209 210
261 263 261 261 266 271 272 277 283 283 283 284 297 310 320 328 333 333 331 330 329 328 317 275 248 234 233 223 210 203 201 199 200 201 203 205 205 205 205 206 208 210 210 210 212 215 215 217 219
256 260 261 262 264 267 271 278 281 283 280 283 292 300 311 323 331 336 337 335 333 333 319 281 248 236 230 219 208 202 201 202 205 206 206 206 206 207 208 208 210 212 213 215 218 220 220 223 226
255 257 260 259 262 264 271 279 283 286 283 282 286 295 309 324 333 335 343 345 345 340 327 293 248 240 225 216 211 207 206 206 209 211 209 208 208 209 212 212 213 215 219 221 223 225 227 230 234
252 256 259 263 265 265 269 281 291 295 292 283 288 299 314 328 328 333 341 346 348 351 345 311 255 243 227 219 216 211 210 208 209 210 207 209 211 212 214 214 216 220 223 225 228 231 234 237 241
242 252 260 263 262 265 270 277 290 297 297 294 291 295 314 321 324 333 342 347 350 355 356 336 295 254 227 215 215 212 211 207 206 207 206 208 210 213 216 217 218 223 226 229 231 235 238 243 246
239 249 255 255 258 263 268 277 289 294 292 295 295 297 308 319 319 328 337 343 348 351 351 333 304 276 239 222 218 210 209 206 206 207 206 207 211 214 217 219 222 225 230 232 235 238 243 247 250
229 240 251 257 259 265 270 275 284 294 299 296 291 288 297 312 322 329 336 336 343 348 345 328 296 271 246 227 217 209 209 208 208 209 210 211 212 214 217 221 224 227 232 237 239 242 247 250 252
227 234 241 250 258 263 266 271 277 281 293 296 296 296 297 298 313 319 329 337 343 343 336 328 306 272 250 232 220 212 211 210 210 210 213 214 216 218 222 225 227 231 236 239 242 247 250 252 255
Height
5900 5899 5899 5900 5899 5898 5895 5894 5894 5893 5891 5890 5889 5887 5886 5885 5885 5885 5882 5881 5880 5880 5880 5881 5882 5883 5884 5885 5886 5887 5888 5889 5890 5890 5891 5891 5891 5891 5890 5890 5889 5888 5888 5888 5887 5887 5887 5887 5887
5901 5900 5900 5900 5899 5896 5895 5895 5894 5893 5891 5890 5889 5888 5886 5885 5884 5882 5881 5880 5880 5879 5880 5880 5881 5882 5883 5884 5885 5887 5888 5889 5889 5890 5891 5891 5891 5891 5890 5890 5889 5889 5888 5888 5888 5887 5887 5887 5887
5901 5900 5901 5900 5898 5896 5896 5895 5894 5893 5891 5890 5889 5887 5886 5885 5883 5881 5880 5879 5879 5879 5879 5879 5880 5881 5882 5883 5884 5886 5887 5888 5889 5890 5890 5891 5891 5891 5891 5890 5890 5889 5889 5888 5888 5887 5887 5887 5887
5902 5901 5901 5900 5897 5896 5895 5894 5894 5893 5892 5890 5888 5887 5885 5884 5882 5880 5878 5877 5877 5877 5878 5878 5879 5879 5880 5882 5883 5885 5886 5887 5888 5889 5890 5891 5891 5891 5891 5890 5890 5889 5889 5888 5888 5887 5887 5887 5887
5901 5901 5901 5899 5897 5896 5895 5895 5894 5893 5891 5890 5889 5886 5885 5883 5881 5879 5877 5876 5875 5876 5877 5877 5877 5878 5879 5880 5882 5883 5885 5886 5887 5888 5889 5890 5891 5891 5890 5890 5890 5890 5889 5888 5888 5888 5887 5888 5888
5902 5902 5901 5899 5898 5896 5895 5895 5894 5893 5892 5890 5888 5886 5884 5883 5881 5878 5876 5875 5874 5874 5875 5875 5876 5876 5877 5879 5881 5882 5884 5885 5886 5887 5889 5890 5890 5890 5890 5890 5890 5889 5889 5889 5888 5888 5888 5888 5888
5903 5902 5901 5899 5898 5897 5896 5895 5894 5893 5891 5890 5888 5886 5883 5882 5880 5878 5875 5874 5873 5872 5873 5873 5874 5874 5876 5877 5879 5880 5882 5883 5885 5886 5888 5889 5889 5890 5890 5890 5890 5889 5889 5888 5888 5888 5888 5888 5888
5902 5902 5900 5899 5897 5897 5896 5895 5894 5892 5890 5889 5887 5885 5882 5880 5879 5877 5874 5872 5871 5870 5870 5871 5872 5872 5873 5875 5877 5878 5880 5882 5883 5885 5886 5887 5888 5889 5889 5889 5889 5889 5888 5888 5888 5888 5888 5888 5888
5901 5902 5899 5898 5897 5896 5895 5895 5894 5891 5889 5887 5886 5884 5882 5879 5877 5875 5872 5870 5869 5868 5868 5868 5869 5870 5871 5873 5874 5876 5878 5880 5881 5883 5885 5886 5887 5888 5888 5888 5888 5888 5888 5888 5888 5888 5887 5887 5888
5900 5899 5898 5897 5896 5895 5894 5894 5893 5890 5889 5887 5884 5882 5880 5876 5874 5872 5870 5867 5866 5865 5865 5865 5866 5867 5868 5870 5871 5873 5876 5877 5879 5881 5883 5884 5885 5886 5887 5887 5887 5887 5887 5887 5887 5887 5887 5887 5887
5898 5898 5896 5895 5894 5894 5893 5893 5891 5889 5888 5886 5883 5880 5877 5874 5871 5870 5868 5865 5862 5862 5862 5862 5863 5863 5865 5867 5868 5871 5873 5875 5877 5879 5881 5882 5884 5885 5885 5886 5887 5887 5887 5887 5887 5887 5887 5887 5887
5897 5895 5894 5892 5892 5892 5891 5890 5889 5888 5887 5885 5882 5878 5875 5871 5868 5866 5863 5861 5859 5858 5858 5859 5859 5860 5861 5863 5865 5867 5870 5872 5874 5876 5879 5880 5882 5883 5884 5885 5885 5886 5886 5886 5886 5886 5887 5887 5887
5895 5893 5891 5890 5890 5889 5889 5888 5887 5885 5884 5882 5880 5876 5873 5869 5866 5863 5860 5858 5857 5856 5855 5855 5856 5857 5858 5860 5862 5864 5867 5869 5872 5874 5876 5878 5880 5881 5883 5883 5884 5885 5885 5885 5886 5886 5886 5886 5886
5893 5891 5890 5889 5888 5887 5886 5886 5884 5883 5882 5880 5878 5875 5871 5867 5863 5860 5857 5855 5854 5854 5852 5852 5852 5853 5854 5856 5858 5861 5864 5867 5869 5872 5874 5876 5878 5880 5881 5882 5883 5884 5884 5885 5885 5886 5886 5886 5886
5890 5889 5888 5887 5886 5885 5884 5883 5882 5881 5879 5878 5876 5873 5869 5865 5861 5857 5854 5852 5851 5851 5850 5849 5849 5851 5852 5853 5855 5858 5860 5863 5866 5869 5872 5874 5876 5878 5879 5881 5882 5883 5883 5884 5884 5885 5885 5886 5886
5887 5886 5885 5885 5884 5882 5882 5881 5879 5877 5877 5875 5873 5870 5866 5862 5859 5854 5851 5849 5848 5847 5847 5846 5847 5848 5849 5851 5853 5855 5858 5860 5863 5866 5869 5871 5874 5876 5878 5879 5881 5882 5882 5883 5884 5884 5885 5885 5886
5884 5883 5882 5882 5881 5879 5878 5877 5877 5875 5874 5872 5870 5868 5864 5860 5857 5853 5850 5848 5846 5844 5844 5844 5844 5845 5846 5847 5849 5852 5855 5858 5860 5864 5867 5869 5872 5874 5876 5878 5879 5881 5882 5882 5883 5884 5885 5885 5886
5880 5880 5879 5879 5877 5876 5875 5874 5873 5872 5870 5869 5867 5865 5861 5858 5855 5852 5849 5846 5843 5841 5840 5841 5841 5842 5843 5844 5847 5850 5853 5855 5858 5861 5865 5868 5870 5872 5875 5877 5878 5880 5881 5882 5883 5883 5884 5885 5885
5877 5876 5875 5875 5874 5873 5872 5872 5870 5869 5868 5866 5865 5862 5858 5856 5853 5850 5847 5844 5841 5840 5839 5838 5838 5840 5841 5843 5845 5848 5851 5853 5856 5859 5863 5866 5868 5871 5873 5875 5877 5878 5880 5881 5882 5883 5883 5884 5885
5872 5872 5872 5872 5871 5870 5869 5869 5868 5867 5865 5864 5862 5859 5857 5854 5851 5847 5844 5841 5839 5837 5836 5836 5837 5839 5840 5842 5843 5846 5849 5852 5854 5857 5861 5864 5867 5869 5871 5874 5875 5877 5878 5880 5881 5882 5883 5883 5884
5868 5868 5868 5868 5867 5866 5866 5866 5865 5864 5863 5862 5860 5857 5855 5852 5849 5845 5842 5840 5838 5837 5836 5835 5836 5837 5838 5840 5841 5844 5846 5849 5852 5856 5859 5862 5865 5867 5869 5872 5874 5875 5877 5878 5879 5881 5882 5882 5883
5864 5864 5864 5864 5864 5863 5864 5862 5862 5861 5860 5859 5857 5855 5852 5850 5847 5844 5840 5839 5838 5836 5835 5835 5835 5836 5836 5838 5840 5842 5845 5848 5851 5853 5856 5860 5862 5865 5867 5870 5872 5873 5875 5876 5878 5879 5880 5881 5882
5860 5860 5860 5860 5860 5860 5860 5859 5859 5857 5857 5856 5855 5852 5850 5847 5845 5843 5840 5838 5836 5835 5833 5833 5833 5834 5835 5836 5838 5841 5843 5846 5849 5851 5854 5857 5860 5862 5865 5868 5870 5872 5873 5875 5876 5877 5879 5880 5881
5855 5856 5856 5856 5856 5856 5856 5856 5855 5853 5853 5853 5852 5850 5848 5845 5843 5841 5839 5837 5835 5833 5832 5831 5832 5832 5833 5834 5836 5839 5841 5844 5847 5849 5852 5855 5857 5860 5863 5865 5867 5869 5871 5872 5874 5875 5877 5878 5879
5850 5851 5852 5852 5852 5852 5853 5851 5851 5850 5849 5850 5849 5847 5845 5843 5841 5840 5838 5835 5834 5832 5831 5830 5830 5831 5831 5833 5834 5836 5839 5841 5844 5846 5849 5852 5854 5857 5860 5862 5865 5867 5868 5870 5872 5873 5874 5875 5877
5846 5847 5848 5848 5848 5849 5849 5848 5849 5846 5845 5845 5845 5843 5841 5840 5840 5839 5836 5834 5832 5830 5829 5829 5829 5829 5830 5831 5832 5834 5836 5838 5841 5843 5846 5849 5851 5854 5857 5859 5862 5864 5866 5867 5869 5870 5871 5872 5873
5842 5842 5844 5844 5844 5844 5845 5845 5845 5844 5842 5842 5841 5840 5839 5838 5838 5837 5835 5833 5831 5829 5828 5828 5828 5828 5829 5829 5830 5831 5833 5835 5838 5840 5843 5845 5848 5851 5854 5856 5858 5860 5862 5864 5865 5867 5868 5869 5870
5838 5839 5840 5840 5840 5840 5841 5841 5842 5841 5840 5839 5838 5837 5836 5836 5835 5835 5833 5832 5830 5829 5828 5828 5827 5827 5827 5828 5828 5829 5831 5833 5835 5838 5840 5843 5846 5848 5851 5853 5855 5857 5859 5860 5862 5863 5864 5865 5866
5834 5835 5835 5836 5837 5837 5836 5839 5838 5837 5837 5836 5835 5834 5834 5834 5834 5833 5832 5831 5830 5828 5827 5827 5826 5826 5826 5827 5827 5828 5829 5831 5833 5835 5838 5840 5843 5845 5848 5850 5852 5854 5855 5856 5858 5859 5860 5861 5862
5829 5830 5831 5832 5833 5833 5833 5836 5834 5834 5834 5833 5833 5832 5832 5832 5832 5832 5831 5830 5829 5828 5827 5826 5825 5825 5825 5825 5825 5826 5827 5829 5831 5833 5836 5838 5840 5842 5844 5847 5848 5850 5851 5853 5854 5855 5856 5856 5857